Time,TemperatureF,DewpointF,PressureIn,WindDirection,WindDirectionDegrees,WindSpeedMPH,WindSpeedGustMPH,Humidity,HourlyPrecipIn,Conditions,Clouds,dailyrainin,SoftwareType,DateUTC
2013-10-17 00:03:00,48.9,25.7,0.00,SW,215,0.0,0.0,40,0.00,,---,0.00,VWS V14.01,2013-10-17 05:03:00,
2013-10-17 00:08:00,48.7,25.5,0.00,NW,311,0.0,0.0,40,0.00,,---,0.00,VWS V14.01,2013-10-17 05:08:00,
2013-10-17 00:13:00,48.7,25.5,0.00,SSW,211,0.0,0.0,40,0.00,,---,0.00,VWS V14.01,2013-10-17 05:13:00,
2013-10-17 00:18:00,48.6,25.4,0.00,SW,236,0.0,0.0,40,0.00,,---,0.00,VWS V14.01,2013-10-17 05:18:00,
2013-10-17 00:24:00,48.6,25.4,0.00,SW,215,0.0,0.0,40,0.00,,---,0.00,VWS V14.01,2013-10-17 05:24:00,
2013-10-17 00:29:00,48.4,25.2,0.00,SSW,209,0.0,0.0,40,0.00,,---,0.00,VWS V14.01,2013-10-17 05:29:00,
2013-10-17 00:34:00,48.2,25.0,0.00,SSW,209,0.0,0.0,40,0.00,,---,0.00,VWS V14.01,2013-10-17 05:34:00,
2013-10-17 00:40:00,47.8,25.3,0.00,SSW,197,0.0,0.0,41,0.00,,---,0.00,VWS V14.01,2013-10-17 05:40:00,
2013-10-17 00:45:00,47.7,25.1,0.00,SSW,197,0.0,0.0,41,0.00,,---,0.00,VWS V14.01,2013-10-17 05:45:00,
2013-10-17 00:50:00,47.5,25.0,0.00,WSW,241,0.0,0.0,41,0.00,,---,0.00,VWS V14.01,2013-10-17 05:50:00,
2013-10-17 00:55:00,47.1,24.6,0.00,SW,235,0.0,0.0,41,0.00,,---,0.00,VWS V14.01,2013-10-17 05:55:00,
2013-10-17 01:00:00,46.9,25.1,0.00,SW,233,0.0,0.0,42,0.00,,---,0.00,VWS V14.01,2013-10-17 06:00:00,
2013-10-17 01:06:00,46.6,24.7,0.00,SW,218,0.0,0.0,42,0.00,,---,0.00,VWS V14.01,2013-10-17 06:06:00,
2013-10-17 01:11:00,46.4,25.1,0.00,SSW,211,0.0,0.0,43,0.00,,---,0.00,VWS V14.01,2013-10-17 06:11:00,
2013-10-17 01:16:00,46.4,25.1,0.00,SSW,208,0.0,0.0,43,0.00,,---,0.00,VWS V14.01,2013-10-17 06:16:00,
2013-10-17 01:22:00,46.0,25.4,0.00,SSW,207,0.0,0.0,44,0.00,,---,0.00,VWS V14.01,2013-10-17 06:22:00,
2013-10-17 01:27:00,46.0,25.4,0.00,SSW,207,0.0,0.0,44,0.00,,---,0.00,VWS V14.01,2013-10-17 06:27:00,
2013-10-17 01:33:00,45.7,25.0,0.00,SSW,207,0.0,0.0,44,0.00,,---,0.00,VWS V14.01,2013-10-17 06:33:00,
2013-10-17 01:38:00,45.5,25.4,0.00,SSW,207,0.0,0.0,45,0.00,,---,0.00,VWS V14.01,2013-10-17 06:38:00,
2013-10-17 01:44:00,45.3,25.2,0.00,SSW,207,0.0,0.0,45,0.00,,---,0.00,VWS V14.01,2013-10-17 06:44:00,
2013-10-17 01:49:00,45.3,25.8,0.00,SSW,207,0.0,0.0,46,0.00,,---,0.00,VWS V14.01,2013-10-17 06:49:00,
2013-10-17 01:55:00,45.1,25.6,0.00,SSW,207,0.0,0.0,46,0.00,,---,0.00,VWS V14.01,2013-10-17 06:55:00,
2013-10-17 02:01:00,45.1,25.6,0.00,SSW,208,0.0,0.0,46,0.00,,---,0.00,VWS V14.01,2013-10-17 07:01:00,
2013-10-17 02:06:00,45.1,26.1,0.00,SSW,208,0.0,0.0,47,0.00,,---,0.00,VWS V14.01,2013-10-17 07:06:00,
2013-10-17 02:12:00,45.0,26.0,0.00,SW,226,0.0,0.0,47,0.00,,---,0.00,VWS V14.01,2013-10-17 07:12:00,
2013-10-17 02:17:00,44.8,25.8,0.00,SW,223,0.0,0.0,47,0.00,,---,0.00,VWS V14.01,2013-10-17 07:17:00,
2013-10-17 02:23:00,44.6,25.6,0.00,WSW,258,0.0,0.0,47,0.00,,---,0.00,VWS V14.01,2013-10-17 07:23:00,
2013-10-17 02:28:00,44.6,25.6,0.00,SW,224,0.0,0.0,47,0.00,,---,0.00,VWS V14.01,2013-10-17 07:28:00,
2013-10-17 02:33:00,44.6,26.1,0.00,SW,220,0.0,0.0,48,0.00,,---,0.00,VWS V14.01,2013-10-17 07:33:00,
2013-10-17 02:39:00,44.2,25.8,0.00,SW,220,0.0,0.0,48,0.00,,---,0.00,VWS V14.01,2013-10-17 07:39:00,
2013-10-17 02:44:00,44.1,25.6,0.00,SW,220,0.0,0.0,48,0.00,,---,0.00,VWS V14.01,2013-10-17 07:44:00,
2013-10-17 02:49:00,43.9,25.5,0.00,SW,218,0.0,0.0,48,0.00,,---,0.00,VWS V14.01,2013-10-17 07:49:00,
2013-10-17 02:54:00,43.9,25.5,0.00,SW,218,0.0,0.0,48,0.00,,---,0.00,VWS V14.01,2013-10-17 07:54:00,
2013-10-17 03:00:00,43.5,25.6,0.00,SW,217,0.0,0.0,49,0.00,,---,0.00,VWS V14.01,2013-10-17 08:00:00,
2013-10-17 03:05:00,43.3,25.5,0.00,South,190,0.0,0.0,49,0.00,,---,0.00,VWS V14.01,2013-10-17 08:05:00,
2013-10-17 03:09:00,43.3,25.5,0.00,South,190,0.0,0.0,49,0.00,,---,0.00,VWS V14.01,2013-10-17 08:09:00,
2013-10-17 03:14:00,43.3,25.5,0.00,South,190,0.0,0.0,49,0.00,,---,0.00,VWS V14.01,2013-10-17 08:14:00,
2013-10-17 03:19:00,42.8,25.5,0.00,South,190,0.0,0.0,50,0.00,,---,0.00,VWS V14.01,2013-10-17 08:19:00,
2013-10-17 03:25:00,42.4,25.1,0.00,South,190,0.0,0.0,50,0.00,,---,0.00,VWS V14.01,2013-10-17 08:25:00,
2013-10-17 03:30:00,42.3,25.4,0.00,South,190,0.0,0.0,51,0.00,,---,0.00,VWS V14.01,2013-10-17 08:30:00,
2013-10-17 03:35:00,42.1,25.3,0.00,South,190,0.0,0.0,51,0.00,,---,0.00,VWS V14.01,2013-10-17 08:35:00,
2013-10-17 03:40:00,41.7,24.9,0.00,South,190,0.0,0.0,51,0.00,,---,0.00,VWS V14.01,2013-10-17 08:40:00,
2013-10-17 03:46:00,41.5,25.2,0.00,South,190,0.0,0.0,52,0.00,,---,0.00,VWS V14.01,2013-10-17 08:46:00,
2013-10-17 03:51:00,41.2,24.9,0.00,South,190,0.0,0.0,52,0.00,,---,0.00,VWS V14.01,2013-10-17 08:51:00,
2013-10-17 03:57:00,40.8,25.0,0.00,South,190,0.0,0.0,53,0.00,,---,0.00,VWS V14.01,2013-10-17 08:57:00,
2013-10-17 04:03:00,40.6,25.3,0.00,South,190,0.0,0.0,54,0.00,,---,0.00,VWS V14.01,2013-10-17 09:03:00,
2013-10-17 04:08:00,40.3,25.4,0.00,South,190,0.0,0.0,55,0.00,,---,0.00,VWS V14.01,2013-10-17 09:08:00,
2013-10-17 04:14:00,40.1,25.2,0.00,South,190,0.0,0.0,55,0.00,,---,0.00,VWS V14.01,2013-10-17 09:14:00,
2013-10-17 04:19:00,39.9,25.5,0.00,South,190,0.0,0.0,56,0.00,,---,0.00,VWS V14.01,2013-10-17 09:19:00,
2013-10-17 04:24:00,39.7,25.8,0.00,South,190,0.0,0.0,57,0.00,,---,0.00,VWS V14.01,2013-10-17 09:24:00,
2013-10-17 04:29:00,39.7,25.8,0.00,South,190,0.0,0.0,57,0.00,,---,0.00,VWS V14.01,2013-10-17 09:29:00,
2013-10-17 04:35:00,39.7,26.2,0.00,South,190,0.0,0.0,58,0.00,,---,0.00,VWS V14.01,2013-10-17 09:35:00,
2013-10-17 04:40:00,39.4,25.9,0.00,South,190,0.0,0.0,58,0.00,,---,0.00,VWS V14.01,2013-10-17 09:40:00,
2013-10-17 04:46:00,39.4,25.9,0.00,South,190,0.0,0.0,58,0.00,,---,0.00,VWS V14.01,2013-10-17 09:46:00,
2013-10-17 04:51:00,39.0,25.9,0.00,South,190,0.0,0.0,59,0.00,,---,0.00,VWS V14.01,2013-10-17 09:51:00,
2013-10-17 04:57:00,39.0,26.3,0.00,South,190,0.0,0.0,60,0.00,,---,0.00,VWS V14.01,2013-10-17 09:57:00,
2013-10-17 05:03:00,38.8,26.2,0.00,South,190,0.0,0.0,60,0.00,,---,0.00,VWS V14.01,2013-10-17 10:03:00,
2013-10-17 05:08:00,38.7,26.4,0.00,South,190,0.0,0.0,61,0.00,,---,0.00,VWS V14.01,2013-10-17 10:08:00,
2013-10-17 05:14:00,38.5,26.2,0.00,South,190,0.0,0.0,61,0.00,,---,0.00,VWS V14.01,2013-10-17 10:14:00,
2013-10-17 05:19:00,38.3,26.4,0.00,South,190,0.0,0.0,62,0.00,,---,0.00,VWS V14.01,2013-10-17 10:19:00,
2013-10-17 05:25:00,38.1,26.6,0.00,South,190,0.0,0.0,63,0.00,,---,0.00,VWS V14.01,2013-10-17 10:25:00,
2013-10-17 05:31:00,37.9,26.5,0.00,South,190,0.0,0.0,63,0.00,,---,0.00,VWS V14.01,2013-10-17 10:31:00,
2013-10-17 05:36:00,37.9,26.5,0.00,South,190,0.0,0.0,63,0.00,,---,0.00,VWS V14.01,2013-10-17 10:36:00,
2013-10-17 05:42:00,37.9,26.9,0.00,South,190,0.0,0.0,64,0.00,,---,0.00,VWS V14.01,2013-10-17 10:42:00,
2013-10-17 05:48:00,37.8,26.7,0.00,South,190,0.0,0.0,64,0.00,,---,0.00,VWS V14.01,2013-10-17 10:48:00,
2013-10-17 05:53:00,37.9,27.2,0.00,South,190,0.0,0.0,65,0.00,,---,0.00,VWS V14.01,2013-10-17 10:53:00,
2013-10-17 05:58:00,37.8,27.1,0.00,South,190,0.0,0.0,65,0.00,,---,0.00,VWS V14.01,2013-10-17 10:58:00,
2013-10-17 06:03:00,37.8,27.1,0.00,South,190,0.0,0.0,65,0.00,,---,0.00,VWS V14.01,2013-10-17 11:03:00,
2013-10-17 06:09:00,37.6,26.9,0.00,South,190,0.0,0.0,65,0.00,,---,0.00,VWS V14.01,2013-10-17 11:09:00,
2013-10-17 06:14:00,37.6,27.6,0.00,South,190,0.0,0.0,67,0.00,,---,0.00,VWS V14.01,2013-10-17 11:14:00,
2013-10-17 06:20:00,37.6,27.6,0.00,South,190,0.0,0.0,67,0.00,,---,0.00,VWS V14.01,2013-10-17 11:20:00,
2013-10-17 06:25:00,37.6,27.6,0.00,South,190,0.0,0.0,67,0.00,,---,0.00,VWS V14.01,2013-10-17 11:25:00,
2013-10-17 06:30:00,37.6,28.0,0.00,SSW,193,0.0,0.0,68,0.00,,---,0.00,VWS V14.01,2013-10-17 11:30:00,
2013-10-17 06:36:00,37.8,28.2,0.00,SSW,193,0.0,0.0,68,0.00,,---,0.00,VWS V14.01,2013-10-17 11:36:00,
2013-10-17 06:42:00,37.8,28.2,0.00,SSW,193,0.0,0.0,68,0.00,,---,0.00,VWS V14.01,2013-10-17 11:42:00,
2013-10-17 06:48:00,37.6,28.4,0.00,SSW,193,0.0,0.0,69,0.00,,---,0.00,VWS V14.01,2013-10-17 11:48:00,
2013-10-17 06:53:00,37.6,28.4,0.00,SSW,193,0.0,0.0,69,0.00,,---,0.00,VWS V14.01,2013-10-17 11:53:00,
2013-10-17 06:58:00,37.4,28.2,0.00,SSW,193,0.0,0.0,69,0.00,,---,0.00,VWS V14.01,2013-10-17 11:58:00,
2013-10-17 07:04:00,37.4,28.2,0.00,SSW,193,0.0,0.0,69,0.00,,---,0.00,VWS V14.01,2013-10-17 12:04:00,
2013-10-17 07:09:00,37.4,28.2,0.00,SSW,193,0.0,0.0,69,0.00,,---,0.00,VWS V14.01,2013-10-17 12:09:00,
2013-10-17 07:14:00,37.2,28.4,0.00,SSW,193,0.0,0.0,70,0.00,,---,0.00,VWS V14.01,2013-10-17 12:14:00,
2013-10-17 07:19:00,37.2,28.4,0.00,SSW,193,0.0,0.0,70,0.00,,---,0.00,VWS V14.01,2013-10-17 12:19:00,
2013-10-17 07:25:00,37.0,28.2,0.00,SSW,193,0.0,0.0,70,0.00,,---,0.00,VWS V14.01,2013-10-17 12:25:00,
2013-10-17 07:31:00,37.0,28.2,0.00,SSW,193,0.0,0.0,70,0.00,,---,0.00,VWS V14.01,2013-10-17 12:31:00,
2013-10-17 07:36:00,36.9,28.4,0.00,SSW,193,0.0,0.0,71,0.00,,---,0.00,VWS V14.01,2013-10-17 12:36:00,
2013-10-17 07:42:00,36.9,28.4,0.00,SSW,193,0.0,0.0,71,0.00,,---,0.00,VWS V14.01,2013-10-17 12:42:00,
2013-10-17 07:47:00,37.0,28.9,0.00,SSW,193,0.0,0.0,72,0.00,,---,0.00,VWS V14.01,2013-10-17 12:47:00,
2013-10-17 07:52:00,37.0,28.9,0.00,SSW,193,0.0,0.0,72,0.00,,---,0.00,VWS V14.01,2013-10-17 12:52:00,
2013-10-17 07:58:00,37.0,28.9,0.00,SSW,193,0.0,0.0,72,0.00,,---,0.00,VWS V14.01,2013-10-17 12:58:00,
2013-10-17 08:03:00,36.9,28.7,0.00,SSW,193,0.0,0.0,72,0.00,,---,0.00,VWS V14.01,2013-10-17 13:03:00,
2013-10-17 08:08:00,37.0,29.2,0.00,SSW,193,0.0,0.0,73,0.00,,---,0.00,VWS V14.01,2013-10-17 13:08:00,
2013-10-17 08:13:00,37.2,29.4,0.00,SSW,193,0.0,0.0,73,0.00,,---,0.00,VWS V14.01,2013-10-17 13:13:00,
2013-10-17 08:19:00,37.6,30.1,0.00,SSW,193,0.0,0.0,74,0.00,,---,0.00,VWS V14.01,2013-10-17 13:19:00,
2013-10-17 08:24:00,38.3,30.8,0.00,SSW,193,0.0,0.0,74,0.00,,---,0.00,VWS V14.01,2013-10-17 13:24:00,
2013-10-17 08:29:00,38.8,31.6,0.00,SSW,193,0.0,0.0,75,0.00,,---,0.00,VWS V14.01,2013-10-17 13:29:00,
2013-10-17 08:35:00,39.2,32.0,0.00,SSW,193,0.0,0.0,75,0.00,,---,0.00,VWS V14.01,2013-10-17 13:35:00,
2013-10-17 08:41:00,40.5,33.5,0.00,SSW,193,0.0,0.0,76,0.00,,---,0.00,VWS V14.01,2013-10-17 13:41:00,
2013-10-17 08:47:00,40.8,33.8,0.00,SSW,193,0.0,0.0,76,0.00,,---,0.00,VWS V14.01,2013-10-17 13:47:00,
2013-10-17 08:52:00,43.2,36.5,0.00,SSW,193,0.0,0.0,77,0.00,,---,0.00,VWS V14.01,2013-10-17 13:52:00,
2013-10-17 08:57:00,45.5,39.4,0.00,SSW,193,0.0,0.0,79,0.00,,---,0.00,VWS V14.01,2013-10-17 13:57:00,
2013-10-17 09:03:00,46.2,40.4,0.00,SSW,193,0.0,0.0,80,0.00,,---,0.00,VWS V14.01,2013-10-17 14:03:00,
2013-10-17 09:09:00,48.6,42.7,0.00,SSW,193,0.0,0.0,80,0.00,,---,0.00,VWS V14.01,2013-10-17 14:09:00,
2013-10-17 09:15:00,50.2,43.9,0.00,SSW,201,0.0,0.0,79,0.00,,---,0.00,VWS V14.01,2013-10-17 14:15:00,
2013-10-17 09:20:00,50.9,43.3,0.00,SW,216,0.0,0.0,75,0.00,,---,0.00,VWS V14.01,2013-10-17 14:20:00,
2013-10-17 09:25:00,51.8,40.8,0.00,SW,231,0.0,0.0,66,0.00,,---,0.00,VWS V14.01,2013-10-17 14:25:00,
2013-10-17 09:31:00,51.8,40.8,0.00,SW,225,0.0,0.0,66,0.00,,---,0.00,VWS V14.01,2013-10-17 14:31:00,
2013-10-17 09:37:00,54.0,35.2,0.00,SW,236,0.0,0.0,49,0.00,,---,0.00,VWS V14.01,2013-10-17 14:37:00,
2013-10-17 09:43:00,55.4,34.4,0.00,SW,214,0.0,0.0,45,0.00,,---,0.00,VWS V14.01,2013-10-17 14:43:00,
2013-10-17 09:48:00,55.8,31.8,0.00,SE,140,0.0,0.0,40,0.00,,---,0.00,VWS V14.01,2013-10-17 14:48:00,
2013-10-17 09:53:00,55.9,32.0,0.00,West,273,0.0,0.0,40,0.00,,---,0.00,VWS V14.01,2013-10-17 14:53:00,
2013-10-17 09:59:00,57.2,31.8,0.00,ENE,60,0.0,0.0,38,0.00,,---,0.00,VWS V14.01,2013-10-17 14:59:00,
2013-10-17 10:04:00,58.1,31.3,0.00,SW,223,0.0,0.0,36,0.00,,---,0.00,VWS V14.01,2013-10-17 15:04:00,
2013-10-17 10:10:00,58.8,32.0,0.00,SW,222,0.0,0.0,36,0.00,,---,0.00,VWS V14.01,2013-10-17 15:10:00,
2013-10-17 10:16:00,59.9,32.9,0.00,ESE,111,0.0,0.0,36,0.00,,---,0.00,VWS V14.01,2013-10-17 15:16:00,
2013-10-17 10:21:00,59.9,32.9,0.00,WSW,241,0.0,0.0,36,0.00,,---,0.00,VWS V14.01,2013-10-17 15:21:00,
2013-10-17 10:27:00,60.8,32.3,0.00,West,264,0.0,0.0,34,0.00,,---,0.00,VWS V14.01,2013-10-17 15:27:00,
2013-10-17 10:33:00,60.8,32.3,0.00,NNW,343,0.0,0.0,34,0.00,,---,0.00,VWS V14.01,2013-10-17 15:33:00,
2013-10-17 10:39:00,61.9,33.2,0.00,SW,220,0.0,0.0,34,0.00,,---,0.00,VWS V14.01,2013-10-17 15:39:00,
2013-10-17 10:44:00,62.4,33.7,0.00,NE,41,0.0,0.0,34,0.00,,---,0.00,VWS V14.01,2013-10-17 15:44:00,
2013-10-17 10:49:00,63.0,31.9,0.00,SSE,155,0.0,0.0,31,0.00,,---,0.00,VWS V14.01,2013-10-17 15:49:00,
2013-10-17 10:55:00,63.0,31.9,0.00,SSE,153,0.0,0.0,31,0.00,,---,0.00,VWS V14.01,2013-10-17 15:55:00,
2013-10-17 11:01:00,64.0,32.8,0.00,North,357,0.0,0.0,31,0.00,,---,0.00,VWS V14.01,2013-10-17 16:01:00,
2013-10-17 11:06:00,64.4,31.5,0.00,WSW,240,0.0,0.0,29,0.00,,---,0.00,VWS V14.01,2013-10-17 16:06:00,
2013-10-17 11:12:00,64.0,31.2,0.00,SSW,201,0.0,0.0,29,0.00,,---,0.00,VWS V14.01,2013-10-17 16:12:00,
2013-10-17 11:17:00,64.9,30.2,0.00,SE,134,0.0,0.0,27,0.00,,---,0.00,VWS V14.01,2013-10-17 16:17:00,
2013-10-17 11:23:00,64.9,30.2,0.00,SSW,207,0.0,0.0,27,0.00,,---,0.00,VWS V14.01,2013-10-17 16:23:00,
2013-10-17 11:29:00,65.7,31.7,0.00,North,357,0.0,0.0,28,0.00,,---,0.00,VWS V14.01,2013-10-17 16:29:00,
2013-10-17 11:34:00,66.0,30.2,0.00,South,178,0.0,0.0,26,0.00,,---,0.00,VWS V14.01,2013-10-17 16:34:00,
2013-10-17 11:40:00,66.4,30.5,0.00,NE,49,0.0,0.0,26,0.00,,---,0.00,VWS V14.01,2013-10-17 16:40:00,
2013-10-17 11:45:00,66.4,30.5,0.00,SSE,154,0.0,0.0,26,0.00,,---,0.00,VWS V14.01,2013-10-17 16:45:00,
2013-10-17 11:51:00,66.7,29.8,0.00,SSW,211,0.0,0.0,25,0.00,,---,0.00,VWS V14.01,2013-10-17 16:51:00,
2013-10-17 11:56:00,66.7,29.8,0.00,South,184,0.0,0.0,25,0.00,,---,0.00,VWS V14.01,2013-10-17 16:56:00,
2013-10-17 12:02:00,67.3,30.3,0.00,North,11,0.0,0.0,25,0.00,,---,0.00,VWS V14.01,2013-10-17 17:02:00,
2013-10-17 12:08:00,67.8,30.7,0.00,SSE,150,0.0,0.0,25,0.00,,---,0.00,VWS V14.01,2013-10-17 17:08:00,
2013-10-17 12:13:00,68.2,30.0,0.00,SSE,160,0.0,0.0,24,0.00,,---,0.00,VWS V14.01,2013-10-17 17:13:00,
2013-10-17 12:19:00,68.2,30.0,0.00,South,191,0.0,0.0,24,0.00,,---,0.00,VWS V14.01,2013-10-17 17:19:00,
2013-10-17 12:24:00,68.9,30.6,0.00,South,184,0.0,0.0,24,0.00,,---,0.00,VWS V14.01,2013-10-17 17:24:00,
2013-10-17 12:30:00,69.1,29.8,0.00,South,173,0.0,0.0,23,0.00,,---,0.00,VWS V14.01,2013-10-17 17:30:00,
2013-10-17 12:36:00,69.8,30.4,0.00,SSE,148,0.0,0.0,23,0.00,,---,0.00,VWS V14.01,2013-10-17 17:36:00,
2013-10-17 12:41:00,69.8,30.4,0.00,NE,48,0.0,0.0,23,0.00,,---,0.00,VWS V14.01,2013-10-17 17:41:00,
2013-10-17 12:47:00,69.8,30.4,0.00,SSW,204,0.0,0.0,23,0.00,,---,0.00,VWS V14.01,2013-10-17 17:47:00,
2013-10-17 12:53:00,70.2,30.7,0.00,NW,313,0.0,0.0,23,0.00,,---,0.00,VWS V14.01,2013-10-17 17:53:00,
2013-10-17 12:59:00,70.2,30.7,0.00,East,97,0.0,0.0,23,0.00,,---,0.00,VWS V14.01,2013-10-17 17:59:00,
2013-10-17 13:05:00,71.6,30.8,0.00,SSW,207,0.0,0.0,22,0.00,,---,0.00,VWS V14.01,2013-10-17 18:05:00,
2013-10-17 13:11:00,71.6,30.8,0.00,SSE,152,0.0,0.0,22,0.00,,---,0.00,VWS V14.01,2013-10-17 18:11:00,
2013-10-17 13:16:00,71.4,30.6,0.00,SSE,152,0.0,0.0,22,0.00,,---,0.00,VWS V14.01,2013-10-17 18:16:00,
2013-10-17 13:22:00,71.4,30.6,0.00,SSW,195,0.0,0.0,22,0.00,,---,0.00,VWS V14.01,2013-10-17 18:22:00,
2013-10-17 13:28:00,70.7,30.0,0.00,ESE,122,0.0,0.0,22,0.00,,---,0.00,VWS V14.01,2013-10-17 18:28:00,
2013-10-17 13:33:00,70.7,30.0,0.00,NE,41,0.0,0.0,22,0.00,,---,0.00,VWS V14.01,2013-10-17 18:33:00,
2013-10-17 13:39:00,70.7,30.0,0.00,NE,47,0.0,0.0,22,0.00,,---,0.00,VWS V14.01,2013-10-17 18:39:00,
2013-10-17 13:44:00,71.8,29.8,0.00,SW,221,3.1,3.1,21,0.00,,---,0.00,VWS V14.01,2013-10-17 18:44:00,
2013-10-17 13:50:00,71.4,27.0,0.00,ESE,119,0.0,0.0,19,0.00,,---,0.00,VWS V14.01,2013-10-17 18:50:00,
2013-10-17 13:55:00,71.2,26.9,0.00,NE,35,0.0,0.0,19,0.00,,---,0.00,VWS V14.01,2013-10-17 18:55:00,
2013-10-17 14:01:00,71.1,26.8,0.00,SE,138,0.0,0.0,19,0.00,,---,0.00,VWS V14.01,2013-10-17 19:01:00,
2013-10-17 14:06:00,71.1,26.8,0.00,South,190,0.0,0.0,19,0.00,,---,0.00,VWS V14.01,2013-10-17 19:06:00,
2013-10-17 14:12:00,71.4,24.4,0.00,NE,56,0.0,0.0,17,0.00,,---,0.00,VWS V14.01,2013-10-17 19:12:00,
2013-10-17 14:17:00,72.0,23.4,0.00,SSW,195,0.0,0.0,16,0.00,,---,0.00,VWS V14.01,2013-10-17 19:17:00,
2013-10-17 14:23:00,72.0,23.4,0.00,NNE,18,0.0,0.0,16,0.00,,---,0.00,VWS V14.01,2013-10-17 19:23:00,
2013-10-17 14:28:00,71.8,23.2,0.00,NNE,29,0.0,0.0,16,0.00,,---,0.00,VWS V14.01,2013-10-17 19:28:00,
2013-10-17 14:33:00,71.8,23.2,0.00,SSE,167,0.0,0.0,16,0.00,,---,0.00,VWS V14.01,2013-10-17 19:33:00,
2013-10-17 14:38:00,72.5,23.8,0.00,SSE,167,0.0,0.0,16,0.00,,---,0.00,VWS V14.01,2013-10-17 19:38:00,
2013-10-17 14:44:00,72.5,20.6,0.00,South,185,0.0,0.0,14,0.00,,---,0.00,VWS V14.01,2013-10-17 19:44:00,
2013-10-17 14:49:00,72.3,20.5,0.00,WSW,242,0.0,0.0,14,0.00,,---,0.00,VWS V14.01,2013-10-17 19:49:00,
2013-10-17 14:54:00,72.1,20.4,0.00,SSE,150,0.0,0.0,14,0.00,,---,0.00,VWS V14.01,2013-10-17 19:54:00,
2013-10-17 15:00:00,72.1,20.4,0.00,SSE,150,0.0,0.0,14,0.00,,---,0.00,VWS V14.01,2013-10-17 20:00:00,
2013-10-17 15:06:00,71.8,20.1,0.00,South,179,0.0,0.0,14,0.00,,---,0.00,VWS V14.01,2013-10-17 20:06:00,
2013-10-17 15:12:00,71.2,19.6,0.00,SE,136,0.0,0.0,14,0.00,,---,0.00,VWS V14.01,2013-10-17 20:12:00,
2013-10-17 15:18:00,71.2,19.6,0.00,North,9,0.0,0.0,14,0.00,,---,0.00,VWS V14.01,2013-10-17 20:18:00,
2013-10-17 15:24:00,70.5,19.1,0.00,NE,34,0.0,0.0,14,0.00,,---,0.00,VWS V14.01,2013-10-17 20:24:00,
2013-10-17 15:29:00,70.3,18.9,0.00,SE,135,0.0,0.0,14,0.00,,---,0.00,VWS V14.01,2013-10-17 20:29:00,
2013-10-17 15:35:00,70.0,18.6,0.00,North,353,0.0,0.0,14,0.00,,---,0.00,VWS V14.01,2013-10-17 20:35:00,
2013-10-17 15:41:00,69.8,18.5,0.00,SSE,166,0.0,0.0,14,0.00,,---,0.00,VWS V14.01,2013-10-17 20:41:00,
2013-10-17 15:47:00,70.0,18.6,0.00,NE,47,0.0,0.0,14,0.00,,---,0.00,VWS V14.01,2013-10-17 20:47:00,
2013-10-17 15:52:00,69.6,22.9,0.00,North,357,0.0,0.0,17,0.00,,---,0.00,VWS V14.01,2013-10-17 20:52:00,
2013-10-17 15:57:00,69.6,22.9,0.00,NNW,332,0.0,0.0,17,0.00,,---,0.00,VWS V14.01,2013-10-17 20:57:00,
2013-10-17 16:03:00,69.6,22.9,0.00,SE,145,0.0,0.0,17,0.00,,---,0.00,VWS V14.01,2013-10-17 21:03:00,
2013-10-17 16:09:00,69.6,22.9,0.00,NNE,19,0.0,0.0,17,0.00,,---,0.00,VWS V14.01,2013-10-17 21:09:00,
2013-10-17 16:15:00,69.3,22.6,0.00,NE,38,0.0,0.0,17,0.00,,---,0.00,VWS V14.01,2013-10-17 21:15:00,
2013-10-17 16:20:00,69.1,22.5,0.00,ESE,113,0.0,0.0,17,0.00,,---,0.00,VWS V14.01,2013-10-17 21:20:00,
2013-10-17 16:25:00,68.9,22.3,0.00,ENE,63,0.0,0.0,17,0.00,,---,0.00,VWS V14.01,2013-10-17 21:25:00,
2013-10-17 16:30:00,68.4,21.9,0.00,East,85,0.0,3.1,17,0.00,,---,0.00,VWS V14.01,2013-10-17 21:30:00,
2013-10-17 16:36:00,68.4,21.9,0.00,NE,38,0.0,0.0,17,0.00,,---,0.00,VWS V14.01,2013-10-17 21:36:00,
2013-10-17 16:41:00,67.8,18.5,0.00,NE,54,0.0,0.0,15,0.00,,---,0.00,VWS V14.01,2013-10-17 21:41:00,
2013-10-17 16:46:00,67.3,18.1,0.00,NW,325,0.0,0.0,15,0.00,,---,0.00,VWS V14.01,2013-10-17 21:46:00,
2013-10-17 16:52:00,66.9,17.8,0.00,SSW,205,0.0,0.0,15,0.00,,---,0.00,VWS V14.01,2013-10-17 21:52:00,
2013-10-17 16:57:00,66.6,17.5,0.00,West,280,0.0,0.0,15,0.00,,---,0.00,VWS V14.01,2013-10-17 21:57:00,
2013-10-17 17:03:00,66.6,17.5,0.00,SSW,206,0.0,0.0,15,0.00,,---,0.00,VWS V14.01,2013-10-17 22:03:00,
2013-10-17 17:09:00,66.6,17.5,0.00,NNW,342,0.0,0.0,15,0.00,,---,0.00,VWS V14.01,2013-10-17 22:09:00,
2013-10-17 17:14:00,64.6,15.9,0.00,West,278,0.0,0.0,15,0.00,,---,0.00,VWS V14.01,2013-10-17 22:14:00,
2013-10-17 17:19:00,64.2,17.1,0.00,West,278,0.0,0.0,16,0.00,,---,0.00,VWS V14.01,2013-10-17 22:19:00,
2013-10-17 17:25:00,63.9,16.8,0.00,NW,313,0.0,0.0,16,0.00,,---,0.00,VWS V14.01,2013-10-17 22:25:00,
2013-10-17 17:30:00,63.9,16.8,0.00,ESE,123,0.0,0.0,16,0.00,,---,0.00,VWS V14.01,2013-10-17 22:30:00,
2013-10-17 17:35:00,63.1,16.2,0.00,NE,37,0.0,0.0,16,0.00,,---,0.00,VWS V14.01,2013-10-17 22:35:00,
2013-10-17 17:41:00,63.1,16.2,0.00,North,8,0.0,0.0,16,0.00,,---,0.00,VWS V14.01,2013-10-17 22:41:00,
2013-10-17 17:47:00,62.6,18.5,0.00,NNW,340,0.0,0.0,18,0.00,,---,0.00,VWS V14.01,2013-10-17 22:47:00,
2013-10-17 17:52:00,62.6,18.5,0.00,North,2,0.0,0.0,18,0.00,,---,0.00,VWS V14.01,2013-10-17 22:52:00,
2013-10-17 17:58:00,62.6,18.5,0.00,ENE,63,0.0,0.0,18,0.00,,---,0.00,VWS V14.01,2013-10-17 22:58:00,
2013-10-17 18:03:00,61.7,19.0,0.00,NE,55,0.0,0.0,19,0.00,,---,0.00,VWS V14.01,2013-10-17 23:03:00,
2013-10-17 18:09:00,61.7,19.0,0.00,NE,54,0.0,0.0,19,0.00,,---,0.00,VWS V14.01,2013-10-17 23:09:00,
2013-10-17 18:15:00,60.8,18.3,0.00,NE,51,0.0,0.0,19,0.00,,---,0.00,VWS V14.01,2013-10-17 23:15:00,
2013-10-17 18:21:00,60.3,17.9,0.00,ENE,69,0.0,0.0,19,0.00,,---,0.00,VWS V14.01,2013-10-17 23:21:00,
2013-10-17 18:26:00,59.5,17.3,0.00,ESE,103,0.0,0.0,19,0.00,,---,0.00,VWS V14.01,2013-10-17 23:26:00,
2013-10-17 18:32:00,59.5,17.3,0.00,ESE,103,0.0,0.0,19,0.00,,---,0.00,VWS V14.01,2013-10-17 23:32:00,
2013-10-17 18:38:00,58.3,19.6,0.00,ESE,103,0.0,0.0,22,0.00,,---,0.00,VWS V14.01,2013-10-17 23:38:00,
2013-10-17 18:43:00,58.3,19.6,0.00,ESE,103,0.0,0.0,22,0.00,,---,0.00,VWS V14.01,2013-10-17 23:43:00,
2013-10-17 18:49:00,57.6,19.0,0.00,ESE,103,0.0,0.0,22,0.00,,---,0.00,VWS V14.01,2013-10-17 23:49:00,
2013-10-17 18:54:00,56.7,21.3,0.00,ESE,103,0.0,0.0,25,0.00,,---,0.00,VWS V14.01,2013-10-17 23:54:00,
2013-10-17 18:59:00,56.7,21.3,0.00,ESE,103,0.0,0.0,25,0.00,,---,0.00,VWS V14.01,2013-10-17 23:59:00,
2013-10-17 19:05:00,55.6,21.3,0.00,ESE,103,0.0,0.0,26,0.00,,---,0.00,VWS V14.01,2013-10-18 00:05:00,
2013-10-17 19:11:00,55.6,21.3,0.00,ESE,103,0.0,0.0,26,0.00,,---,0.00,VWS V14.01,2013-10-18 00:11:00,
2013-10-17 19:17:00,54.5,22.1,0.00,ESE,103,0.0,0.0,28,0.00,,---,0.00,VWS V14.01,2013-10-18 00:17:00,
2013-10-17 19:22:00,54.1,21.8,0.00,ESE,103,0.0,0.0,28,0.00,,---,0.00,VWS V14.01,2013-10-18 00:22:00,
2013-10-17 19:27:00,53.8,26.1,0.00,ESE,103,0.0,0.0,34,0.00,,---,0.00,VWS V14.01,2013-10-18 00:27:00,
2013-10-17 19:33:00,53.6,26.6,0.00,ESE,103,0.0,0.0,35,0.00,,---,0.00,VWS V14.01,2013-10-18 00:33:00,
2013-10-17 19:39:00,53.6,26.6,0.00,ESE,103,0.0,0.0,35,0.00,,---,0.00,VWS V14.01,2013-10-18 00:39:00,
2013-10-17 19:45:00,52.3,26.2,0.00,ESE,103,0.0,0.0,36,0.00,,---,0.00,VWS V14.01,2013-10-18 00:45:00,
2013-10-17 19:50:00,51.8,25.7,0.00,ESE,103,0.0,0.0,36,0.00,,---,0.00,VWS V14.01,2013-10-18 00:50:00,
2013-10-17 19:55:00,51.6,26.2,0.00,SE,138,0.0,0.0,37,0.00,,---,0.00,VWS V14.01,2013-10-18 00:55:00,
2013-10-17 20:01:00,52.0,25.9,0.00,NNW,344,0.0,0.0,36,0.00,,---,0.00,VWS V14.01,2013-10-18 01:01:00,
2013-10-17 20:07:00,52.5,26.4,0.00,NE,38,0.0,0.0,36,0.00,,---,0.00,VWS V14.01,2013-10-18 01:07:00,
2013-10-17 20:12:00,53.1,27.5,0.00,NNE,30,0.0,0.0,37,0.00,,---,0.00,VWS V14.01,2013-10-18 01:12:00,
2013-10-17 20:18:00,53.1,27.5,0.00,ESE,116,0.0,0.0,37,0.00,,---,0.00,VWS V14.01,2013-10-18 01:18:00,
2013-10-17 20:23:00,53.2,27.7,0.00,SE,136,0.0,0.0,37,0.00,,---,0.00,VWS V14.01,2013-10-18 01:23:00,
2013-10-17 20:29:00,53.2,27.7,0.00,SE,136,0.0,0.0,37,0.00,,---,0.00,VWS V14.01,2013-10-18 01:29:00,
2013-10-17 20:34:00,53.2,27.7,0.00,SSE,149,0.0,0.0,37,0.00,,---,0.00,VWS V14.01,2013-10-18 01:34:00,
2013-10-17 20:40:00,53.4,29.1,0.00,East,83,0.0,0.0,39,0.00,,---,0.00,VWS V14.01,2013-10-18 01:40:00,
2013-10-17 20:46:00,53.2,28.3,0.00,NE,48,0.0,0.0,38,0.00,,---,0.00,VWS V14.01,2013-10-18 01:46:00,
2013-10-17 20:51:00,53.1,28.1,0.00,East,88,0.0,0.0,38,0.00,,---,0.00,VWS V14.01,2013-10-18 01:51:00,
2013-10-17 20:57:00,53.1,28.1,0.00,NNW,330,0.0,0.0,38,0.00,,---,0.00,VWS V14.01,2013-10-18 01:57:00,
2013-10-17 21:03:00,52.0,27.8,0.00,ESE,114,0.0,0.0,39,0.00,,---,0.00,VWS V14.01,2013-10-18 02:03:00,
2013-10-17 21:08:00,52.0,27.8,0.00,ENE,58,0.0,0.0,39,0.00,,---,0.00,VWS V14.01,2013-10-18 02:08:00,
2013-10-17 21:14:00,51.4,27.9,0.00,North,0,0.0,0.0,40,0.00,,---,0.00,VWS V14.01,2013-10-18 02:14:00,
2013-10-17 21:19:00,51.3,27.8,0.00,WSW,245,0.0,0.0,40,0.00,,---,0.00,VWS V14.01,2013-10-18 02:19:00,
2013-10-17 21:25:00,50.7,27.3,0.00,NE,37,0.0,0.0,40,0.00,,---,0.00,VWS V14.01,2013-10-18 02:25:00,
2013-10-17 21:30:00,50.4,27.6,0.00,NW,319,0.0,0.0,41,0.00,,---,0.00,VWS V14.01,2013-10-18 02:30:00,
2013-10-17 21:36:00,50.4,27.6,0.00,NNE,15,0.0,0.0,41,0.00,,---,0.00,VWS V14.01,2013-10-18 02:36:00,
2013-10-17 21:42:00,50.0,27.8,0.00,WSW,253,0.0,0.0,42,0.00,,---,0.00,VWS V14.01,2013-10-18 02:42:00,
2013-10-17 21:47:00,49.8,28.2,0.00,NE,46,0.0,0.0,43,0.00,,---,0.00,VWS V14.01,2013-10-18 02:47:00,
2013-10-17 21:53:00,49.6,28.1,0.00,NNE,23,0.0,0.0,43,0.00,,---,0.00,VWS V14.01,2013-10-18 02:53:00,
2013-10-17 21:59:00,49.5,28.5,0.00,WNW,291,0.0,0.0,44,0.00,,---,0.00,VWS V14.01,2013-10-18 02:59:00,
2013-10-17 22:05:00,49.1,27.6,0.00,WNW,290,0.0,0.0,43,0.00,,---,0.00,VWS V14.01,2013-10-18 03:05:00,
2013-10-17 22:11:00,48.6,27.1,0.00,NNE,20,0.0,0.0,43,0.00,,---,0.00,VWS V14.01,2013-10-18 03:11:00,
2013-10-17 22:17:00,48.6,27.1,0.00,SSW,199,0.0,0.0,43,0.00,,---,0.00,VWS V14.01,2013-10-18 03:17:00,
2013-10-17 22:22:00,48.2,27.9,0.00,NNE,16,0.0,0.0,45,0.00,,---,0.00,VWS V14.01,2013-10-18 03:22:00,
2013-10-17 22:28:00,48.2,27.9,0.00,NNE,27,0.0,0.0,45,0.00,,---,0.00,VWS V14.01,2013-10-18 03:28:00,
2013-10-17 22:34:00,47.7,28.4,0.00,SE,133,0.0,0.0,47,0.00,,---,0.00,VWS V14.01,2013-10-18 03:34:00,
2013-10-17 22:39:00,47.5,28.3,0.00,ENE,57,0.0,0.0,47,0.00,,---,0.00,VWS V14.01,2013-10-18 03:39:00,
2013-10-17 22:45:00,47.5,28.3,0.00,NNW,346,0.0,0.0,47,0.00,,---,0.00,VWS V14.01,2013-10-18 03:45:00,
2013-10-17 22:50:00,47.3,28.6,0.00,North,357,0.0,0.0,48,0.00,,---,0.00,VWS V14.01,2013-10-18 03:50:00,
2013-10-17 22:56:00,47.3,28.6,0.00,North,2,0.0,0.0,48,0.00,,---,0.00,VWS V14.01,2013-10-18 03:56:00,
2013-10-17 23:01:00,47.3,28.6,0.00,SSW,198,0.0,0.0,48,0.00,,---,0.00,VWS V14.01,2013-10-18 04:01:00,
2013-10-17 23:04:00,46.6,28.0,0.00,SW,227,0.0,0.0,48,0.00,,---,0.00,VWS V14.01,2013-10-18 04:04:00,
2013-10-17 23:07:00,46.6,28.0,0.00,SW,227,0.0,0.0,48,0.00,,---,0.00,VWS V14.01,2013-10-18 04:07:00,
2013-10-17 23:09:00,46.6,28.0,0.00,SW,227,0.0,0.0,48,0.00,,---,0.00,VWS V14.01,2013-10-18 04:09:00,
2013-10-17 23:14:00,46.0,28.0,0.00,NW,306,0.0,0.0,49,0.00,,---,0.00,VWS V14.01,2013-10-18 04:14:00,
2013-10-17 23:20:00,46.0,28.0,0.00,WNW,290,0.0,0.0,49,0.00,,---,0.00,VWS V14.01,2013-10-18 04:20:00,
2013-10-17 23:25:00,46.0,28.0,0.00,North,6,0.0,0.0,49,0.00,,---,0.00,VWS V14.01,2013-10-18 04:25:00,
2013-10-17 23:30:00,45.7,28.1,0.00,North,7,0.0,0.0,50,0.00,,---,0.00,VWS V14.01,2013-10-18 04:30:00,
2013-10-17 23:36:00,45.7,28.1,0.00,North,357,0.0,0.0,50,0.00,,---,0.00,VWS V14.01,2013-10-18 04:36:00,
2013-10-17 23:41:00,45.3,27.8,0.00,NW,326,0.0,0.0,50,0.00,,---,0.00,VWS V14.01,2013-10-18 04:41:00,
2013-10-17 23:46:00,45.3,27.8,0.00,NNE,30,0.0,0.0,50,0.00,,---,0.00,VWS V14.01,2013-10-18 04:46:00,
2013-10-17 23:52:00,45.3,27.8,0.00,North,2,0.0,0.0,50,0.00,,---,0.00,VWS V14.01,2013-10-18 04:52:00,
2013-10-17 23:57:00,45.3,27.8,0.00,North,357,0.0,0.0,50,0.00,,---,0.00,VWS V14.01,2013-10-18 04:57:00,